KI5NYZ Weather Reports


Display with metric or nautical units.
time (UTC)temp
F
wind
direction
speed
MPH
gust
MPH
rain 1hr
in
rain 24hr
in
rain mn
in
humidity
%
barometer
mb
20260906025024 84 190 0.0 2.0 0.00 0.26 0.10 42 1014.4
20260906024018 85 191 0.0 2.0 0.00 0.28 0.10 41 1014.2
20260906023019 86 70 0.0 1.0 0.00 0.32 0.10 40 1014.1
20260906022022 87 82 0.0 1.0 0.00 0.34 0.10 39 1013.9
20260906021020 87 76 0.0 1.0 0.00 0.34 0.10 39 1013.9
20260906020025 88 99 0.0 1.0 0.00 0.34 0.10 38 1013.7
20260906015020 88 104 0.0 2.0 0.00 0.35 0.10 38 1013.6
20260906014021 89 219 0.0 1.0 0.00 0.36 0.10 37 1013.5
20260906013019 89 10 0.0 2.0 0.00 0.36 0.10 36 1013.4
20260906012027 90 176 0.0 2.0 0.00 0.36 0.10 35 1013.3
20260906011019 91 98 0.0 4.0 0.00 0.36 0.10 34 1013.2
20260906010040 92 115 0.0 3.0 0.00 0.36 0.10 33 1013.1
20260906005024 94 153 0.0 2.0 0.00 0.36 0.10 32 1013.0
20260906004028 95 175 1.0 4.0 0.00 0.36 0.10 30 1012.9
20260906003023 95 118 1.0 3.0 0.00 0.36 0.10 30 1012.9
20260906002021 96 178 1.0 4.0 0.00 0.36 0.10 30 1012.9
20260906001020 96 123 1.0 4.0 0.00 0.36 0.10 29 1012.7
20260906000027 96 122 1.0 3.0 0.00 0.36 0.10 29 1012.8
20260905235021 96 118 3.0 5.0 0.00 0.36 0.10 29 1012.6
20260905234040 97 121 2.0 4.0 0.00 0.36 0.10 29 1012.5
20260905233021 98 167 1.0 7.0 0.00 0.36 0.10 29 1012.5
20260905232020 98 119 1.0 3.0 0.00 0.36 0.10 29 1012.4
20260905231039 98 119 2.0 5.0 0.00 0.36 0.10 29 1012.4
20260905230020 99 179 2.0 6.0 0.01 0.36 0.10 29 1012.4
20260905225040 99 186 2.0 7.0 0.01 0.36 0.10 29 1012.5
20260905224020 99 114 1.0 3.0 0.01 0.36 0.10 29 1012.5
20260905223044 98 157 2.0 7.0 0.01 0.36 0.10 30 1012.5
20260905222022 98 146 1.0 4.0 0.01 0.36 0.09 31 1012.5
20260905221019 98 185 4.0 10.0 0.01 0.36 0.09 31 1012.6
20260905220021 96 181 1.0 6.0 0.01 0.35 0.09 32 1012.6
20260905215020 98 115 2.0 4.0 0.01 0.36 0.09 32 1012.7
20260905214023 98 109 3.0 4.0 0.01 0.36 0.09 31 1012.8
20260905213021 99 179 4.0 11.0 0.01 0.36 0.09 31 1013.0
20260905212022 98 157 1.0 8.0 0.01 0.36 0.08 32 1013.2
20260905211022 98 173 2.0 7.0 0.01 0.36 0.08 31 1013.3
20260905210026 97 191 3.0 7.0 0.02 0.36 0.08 32 1013.6
20260905205023 97 155 2.0 6.0 0.02 0.36 0.08 33 1013.8
20260905204027 97 189 3.0 9.0 0.02 0.37 0.08 34 1013.9
20260905203025 97 188 4.0 9.0 0.02 0.37 0.08 34 1014.1
20260905202020 97 183 3.0 8.0 0.02 0.37 0.07 34 1014.3
20260905201018 97 146 1.0 7.0 0.02 0.36 0.07 34 1014.4
20260905200020 97 186 3.0 9.0 0.02 0.36 0.06 34 1014.6
20260905195021 96 186 4.0 9.0 0.02 0.36 0.06 35 1014.7
20260905194023 97 118 1.0 4.0 0.02 0.35 0.06 34 1014.8
20260905193022 96 131 3.0 6.0 0.02 0.35 0.05 35 1014.9
20260905192021 95 172 2.0 7.0 0.02 0.35 0.05 37 1015.1
20260905191020 95 179 3.0 8.0 0.02 0.35 0.05 39 1015.2
20260905190025 94 175 3.0 9.0 0.01 0.34 0.04 40 1015.3
20260905185021 94 188 3.0 8.0 0.01 0.34 0.04 40 1015.4
20260905184020 94 187 2.0 8.0 0.00 0.33 0.03 40 1015.6
20260905183047 94 155 2.0 7.0 0.00 0.33 0.03 39 1015.7
20260905182101 94 178 1.0 6.0 0.00 0.33 0.03 39 1015.7
20260905181020 93 157 2.0 7.0 0.00 0.33 0.03 40 1015.9
20260905180045 93 173 2.0 6.0 0.00 0.33 0.03 42 1016.0
20260905175021 91 161 1.0 7.0 0.00 0.33 0.03 44 1016.0
20260905174021 91 231 2.0 5.0 0.00 0.33 0.03 46 1016.1
20260905173044 89 192 2.0 6.0 0.00 0.33 0.03 46 1016.3
20260905172024 89 183 2.0 6.0 0.00 0.33 0.03 49 1016.3
20260905171023 89 211 2.0 6.0 0.00 0.33 0.03 49 1016.4
20260905170022 88 202 1.0 5.0 0.00 0.33 0.03 50 1016.4
20260905165023 87 191 2.0 5.0 0.00 0.33 0.03 52 1016.4
20260905164020 86 202 3.0 7.0 0.01 0.33 0.03 53 1016.4
20260905163020 85 230 2.0 6.0 0.01 0.33 0.03 54 1016.3
20260905162019 84 206 3.0 6.0 0.01 0.33 0.03 55 1016.3
20260905161019 84 201 3.0 9.0 0.01 0.33 0.03 57 1016.4
20260905160020 84 192 4.0 9.0 0.02 0.33 0.03 57 1016.4
20260905155022 83 204 3.0 7.0 0.02 0.33 0.03 59 1016.3
20260905154020 82 188 4.0 8.0 0.02 0.33 0.03 60 1016.3
20260905153021 82 194 3.0 8.0 0.02 0.32 0.02 61 1016.2
20260905152021 81 200 4.0 8.0 0.02 0.32 0.02 61 1016.2
20260905151025 81 191 4.0 7.0 0.02 0.32 0.02 63 1016.1
20260905150045 80 184 3.0 6.0 0.01 0.31 0.01 64 1016.0
20260905145041 79 184 3.0 7.0 0.01 0.31 0.01 65 1016.0
20260905144048 79 179 4.0 8.0 0.01 0.31 0.01 66 1016.1
20260905143021 78 185 3.0 6.0 0.00 0.30 0.01 66 1016.1
20260905142020 76 177 3.0 6.0 0.00 0.30 0.00 68 1016.1
20260905141041 76 180 4.0 7.0 0.00 0.30 0.00 69 1016.2
20260905140022 75 171 3.0 8.0 0.00 0.30 0.00 70 1016.1
20260905135023 75 174 3.0 6.0 0.00 0.30 0.00 71 1016.1
20260905134022 74 172 2.0 7.0 0.00 0.30 0.00 72 1016.0
20260905133024 73 178 1.0 6.0 0.00 0.30 0.00 73 1016.0
20260905132020 72 159 1.0 3.0 0.00 0.30 0.00 75 1015.8
20260905131020 71 191 0.0 4.0 0.00 0.30 0.00 77 1015.7
20260905130020 71 159 0.0 2.0 0.00 0.30 0.00 79 1015.7
20260905125025 71 194 1.0 4.0 0.00 0.30 0.00 79 1015.5
20260905124020 71 203 0.0 2.0 0.00 0.30 0.00 79 1015.4
20260905123020 71 209 0.0 2.0 0.00 0.30 0.00 78 1015.3
20260905122020 71 189 1.0 3.0 0.00 0.30 0.00 77 1015.2
20260905121021 72 188 2.0 4.0 0.00 0.30 0.00 76 1015.2
20260905120022 72 180 2.0 4.0 0.00 0.30 0.00 75 1015.2
20260905115020 72 174 2.0 4.0 0.00 0.30 0.00 76 1015.2
20260905114025 72 175 1.0 5.0 0.00 0.30 0.00 76 1015.3
20260905113022 72 184 1.0 4.0 0.00 0.30 0.00 77 1015.3
20260905112022 72 181 0.0 2.0 0.00 0.30 0.00 76 1015.3
20260905111044 72 184 0.0 3.0 0.00 0.30 0.00 76 1015.4
20260905110023 72 186 0.0 2.0 0.00 0.30 0.00 75 1015.4
20260905105021 72 175 0.0 1.0 0.00 0.30 0.00 74 1015.4
20260905104024 72 183 0.0 2.0 0.00 0.30 0.00 75 1015.4
20260905103024 72 0 0.0 0.0 0.00 0.30 0.00 75 1015.4
20260905102022 72 0 0.0 0.0 0.00 0.30 0.00 76 1015.5
20260905101018 73 222 0.0 0.0 0.00 0.30 0.00 74 1015.5
20260905100018 73 0 0.0 0.0 0.00 0.30 0.00 72 1015.5
20260905095021 73 192 0.0 2.0 0.00 0.30 0.00 72 1015.4
20260905094039 74 0 0.0 0.0 0.00 0.30 0.00 71 1015.3
20260905093039 74 0 0.0 0.0 0.00 0.30 0.00 70 1015.3
20260905092020 74 199 0.0 2.0 0.00 0.30 0.00 70 1015.3
20260905091019 75 108 0.0 0.0 0.00 0.30 0.00 69 1015.3
20260905090021 74 181 1.0 3.0 0.00 0.30 0.00 69 1015.2
20260905085022 74 184 1.0 5.0 0.00 0.30 0.00 71 1015.1
20260905084022 74 174 1.0 3.0 0.00 0.30 0.00 70 1015.1
20260905083020 74 180 1.0 3.0 0.00 0.30 0.00 71 1015.0
20260905082020 74 184 0.0 3.0 0.00 0.30 0.00 70 1015.0
20260905081020 74 179 0.0 3.0 0.00 0.30 0.00 69 1015.0
20260905075023 75 0 0.0 0.0 0.00 0.30 0.00 68 1015.1
20260905074024 75 0 0.0 0.0 0.00 0.30 0.00 68 1015.1
20260905073021 75 0 0.0 0.0 0.00 0.30 0.00 68 1015.2
20260905072022 75 0 0.0 0.0 0.00 0.30 0.00 68 1015.1
20260905071040 75 190 0.0 2.0 0.00 0.30 0.00 67 1015.1
20260905070025 76 201 0.0 1.0 0.00 0.30 0.00 67 1015.2
20260905065023 76 0 0.0 0.0 0.00 0.30 0.00 66 1015.3
20260905064021 77 185 0.0 2.0 0.00 0.30 0.00 65 1015.3
20260905063019 77 187 1.0 4.0 0.00 0.30 0.00 64 1015.3
20260905062024 77 186 1.0 3.0 0.00 0.30 0.00 64 1015.3
20260905061020 77 196 1.0 3.0 0.00 0.30 0.00 63 1015.2
20260905060041 78 203 0.0 3.0 0.00 0.30 0.00 63 1015.2
20260905055020 78 200 1.0 3.0 0.00 0.30 0.00 62 1015.1
20260905054026 79 223 1.0 4.0 0.00 0.30 0.00 61 1015.0
20260905053022 79 217 1.0 4.0 0.00 0.30 0.00 60 1014.9
20260905052025 79 198 2.0 7.0 0.01 0.30 0.00 59 1014.9
20260905051020 80 200 2.0 6.0 0.02 0.30 0.00 58 1014.9
20260905050020 80 191 4.0 7.0 0.03 0.30 0.00 58 1015.1
20260905045041 80 188 4.0 9.0 0.04 0.30 0.30 58 1015.2
20260905044031 80 198 3.0 6.0 0.05 0.30 0.30 58 1015.1
20260905043020 81 192 4.0 8.0 0.06 0.30 0.30 57 1015.0
20260905042022 81 192 4.0 8.0 0.07 0.29 0.29 57 1015.1
20260905041018 81 184 5.0 11.0 0.08 0.28 0.28 57 1015.1
20260905040020 81 183 4.0 8.0 0.10 0.27 0.27 56 1015.1
20260905035101 81 184 4.0 8.0 0.12 0.26 0.26 56 1015.0
20260905034019 82 183 4.0 7.0 0.13 0.25 0.25 56 1015.1
20260905033023 82 180 4.0 10.0 0.15 0.23 0.23 55 1015.0
20260905032020 82 181 5.0 10.0 0.16 0.22 0.22 54 1014.8
20260905031039 83 175 5.0 13.0 0.14 0.20 0.20 53 1014.6
20260905030021 83 174 4.0 8.0 0.11 0.17 0.17 53 1014.5